LUCH 5A (SDCM/PRN 140)

Last updated on Wed Sep 09 2026 00:03:30 GMT+0000 (Coordinated Universal Time)

1 37951U 11074B 26251.59801819 -.00000067 00000+0 00000+0 0 9997 2 37951 8.9597 72.5610 0003932 120.5838 176.7348 1.00271896 53884
UTC large
Height (km)
Speed (km/s)
/
Latitude / Longitude
Inclination (degrees)
Orbital Period (minutes)
Azimuth
Elevation
Range (km)
Doppler Factor

Next 0 passes for location: London (51.5072 / 0.1276)

No passes found over London.
LUCH 5A (SDCM/PRN 140)